Regional Weather Roundup
Issued by NWS

Home | Current Version | Previous Version | Graphics & Text | Print | Product List | Glossary On
Versions: 1 2 3 4 5 6 7 8 9 10 11 12 13 14 15 16 17 18 19 20 21 22 23 24 25 26 27 28 29 30 31 32 33 34 35 36 37 38 39 40 41 42 43 44 45 46 47 48 49 50
000
ASUS43 KDMX 290207
RWRIA

WEATHER ROUNDUP FOR IOWA
NATIONAL WEATHER SERVICE DES MOINES IA
900 PM CDT SAT MAR 28 2015

NOTE: "FAIR" INDICATES FEW OR NO CLOUDS BELOW 12,000 FEET WITH NO
SIGNIFICANT WEATHER AND/OR OBSTRUCTIONS TO VISIBILITY.

* - THESE STATIONS ARE NOT NWS STATIONS...THUS NOT UNDER NWS
QUALITY CONTROL.  THEY ALSO DO NOT REPORT WEATHER SUCH
AS PRECIPITATION OR FOG.

IAZ001>003-012>014-020>022-031>034-043>046-290300-
   NORTHWEST IOWA

CITY           SKY/WX    TMP DP  RH WIND       PRES   REMARKS
CARROLL *      CLEAR     39  27  60 SE14      30.03F WCI  31
CHEROKEE *     CLEAR     41  28  60 S14       29.98F
DENISON *      CLEAR     43  28  56 S13       29.99F
LE MARS *      CLEAR     45  28  53 SE12      29.95S
ORANGE CITY *  CLEAR     45  27  49 S10       29.94F
SHELDON *      CLEAR     41  30  65 S17       29.93F
SIOUX CITY     CLEAR     47  29  49 S13       29.96F
SPENCER        CLEAR     40  29  64 SE14      29.98S WCI  32
STORM LAKE *   CLEAR     39  28  65 S15       30.00F WCI  31
$$

IAZ055>058-069>071-079>083-090>094-290300-
   SOUTHWEST IOWA

CITY           SKY/WX    TMP DP  RH WIND       PRES   REMARKS
ATLANTIC *     PTCLDY    43  28  56 SE9       30.06S
AUDUBON *      CLEAR     39  28  65 SE7       30.05F WCI  34
CLARINDA *     CLEAR     43  32  65 SE10      30.09F
COUNCIL BLFS * CLEAR     45  32  61 SE15      30.02F
CRESTON *      CLEAR     36  28  75 SE8       30.11R WCI  29
HARLAN  *      CLEAR     43  30  61 S13       30.06F
LAMONI         CLEAR     40  27  59 SE8       30.12F WCI  34
RED OAK *      CLEAR     43  30  61 SE10      30.06F
SHENANDOAH *   CLEAR     45  32  61 SE10      30.07S
$$

IAZ047>049-059>061-072>074-084-290300-
   CENTRAL IOWA

CITY           SKY/WX    TMP DP  RH WIND       PRES   REMARKS
AMES           CLEAR     39  19  44 SE9       30.10S WCI  33
ANKENY *       CLEAR     41  21  45 S9        30.11S
CHARITON *     CLEAR     37  23  56 S9        30.13S WCI  31
DES MOINES     CLEAR     42  21  43 S9        30.12S
GRINNELL*      CLEAR     36  18  48 SE10      30.15S WCI  28
KNOXVILLE *    CLEAR     39  19  45 SE9       30.13R WCI  33
MARSHALLTOWN   CLEAR     37  18  46 SE13      30.12S WCI  29
PELLA *        CLEAR     39  23  52 SE9       30.15S WCI  33
PERRY *          N/A     39  25  56 S10       30.09R WCI  32
$$

IAZ004>006-015-016-023>025-035-036-290300-
   NORTH CENTRAL IOWA

CITY           SKY/WX    TMP DP  RH WIND       PRES   REMARKS
ALGONA *       CLEAR     39  23  52 S17       30.03F WCI  30
CLARION *      CLEAR     36  25  64 SE13      30.07S WCI  27
ESTHERVILLE    CLEAR     39  26  59 S20       29.98F WCI  29
FORT DODGE *   CLEAR     41  21  45 S9        30.07S
MASON CITY     CLEAR     35  22  58 S14       30.09S WCI  26
FOREST CITY *  CLEAR     32  27  80 SE10      30.06S WCI  24
IOWA FALLS *     N/A     34  23  64 SE9       30.11S WCI  26
$$

IAZ007>011-017>019-026>030-037>042-050>054-066-290300-
   NORTHEAST IOWA

CITY           SKY/WX    TMP DP  RH WIND       PRES   REMARKS
CEDAR RAPIDS   CLEAR     32  15  49 SE8       30.18S WCI  25
CHARLES CITY * CLEAR     36  19  51 SE10      30.11F WCI  28
CLINTON *      CLEAR     32  12  43 SE9       30.27S WCI  24
DECORAH *      PTCLDY    34  18  51 S8        30.13S WCI  27
DUBUQUE        CLEAR     29  16  58 S10       30.20F WCI  20
MONTICELLO *   CLEAR     30  18  59 SE6       30.20S WCI  24
OELWEIN *      CLEAR     30  19  64 SE10      30.16S WCI  21
WATERLOO       CLEAR     37  16  42 S13       30.14F WCI  29
$$

IAZ064-065-067-068-078-290300-
   EAST CENTRAL IOWA

CITY           SKY/WX    TMP DP  RH WIND       PRES   REMARKS
DAVENPORT      CLEAR     31  13  47 S9        30.24S WCI  23
IOWA CITY      CLEAR     32  16  51 SE8       30.22S WCI  25
MT. PLEASANT * CLEAR     32  16  51 SE9       30.22S WCI  24
MUSCATINE *    CLEAR     36  14  41 SE7       30.23F WCI  30
QUAD CITIES    CLEAR     31  16  54 S6        30.25R WCI  25
$$

IAZ062-063-075>077-085>089-095>099-290300-
   SOUTHEAST IOWA

CITY           SKY/WX    TMP DP  RH WIND       PRES   REMARKS
BURLINGTON     CLEAR     35  15  44 SE8       30.23R WCI  29
FAIRFIELD *    CLEAR     32  18  55 SE8       30.20S WCI  25
FORT MADISON * CLEAR     36  18  48 SE8       30.24R WCI  29
KEOKUK *       CLEAR     36  21  55 SE10      30.22S WCI  28
OSKALOOSA *      N/A     32  19  59 SE9       30.17F WCI  24
CENTERVILLE *  CLEAR     37  23  56 SE9       30.16F WCI  31
OTTUMWA        CLEAR     33  16  49 SE9       30.17S WCI  25
WASHINGTON *   CLEAR     32  18  55 SE9       30.20F WCI  24
$$

ABBREVIATIONS USED IN REMARKS
   TC - TEMPERATURES IN CELSIUS
  WCI - WIND CHILL INDEX
   HX - HEAT INDEX
  VSB - VISIBILITY
$$




USA.gov is the U.S. government's official web portal to all federal, state and local government web resources and services.